Ocean City, MD

7:04 AM EDT on March 28, 2017 (GMT -0400)
Ocean City Municipal

Weather History for KOXB - May, 2013

Change the Weather History Date:

Tuesday, May 7, 2013

  Actual Average (KSBY) Record (KSBY)
Temperature  
Mean Temperature 56 °F -  
Max Temperature 59 °F 70 °F 92 °F (1930)
Min Temperature 53 °F 48 °F 32 °F (1970)
Degree Days  
Heating Degree Days 9    
Growing Degree Days 6 (Base 50)    
Moisture  
Dew Point 56 °F    
Average Humidity 100    
Maximum Humidity 100    
Minimum Humidity 96    
Precipitation  
Precipitation 0.12 in - - ()
Sea Level Pressure  
Sea Level Pressure 30.01 in    
Wind  
Wind Speed 9 mph (East)    
Max Wind Speed 15 mph    
Max Gust Speed 26 mph    
Visibility 6 miles    
Events Fog , Rain    
Averages and records for this station are not official NWS values.
T = Trace of Precipitation, MM = Missing Value Source: NWS Daily Summary

Daily Weather History Graph

Daily Weather History Graph

Search for Another Location

Airport or City:

Trip Planner

Search our weather history database for the weather conditions in past years. The results will help you decide how hot, cold, wet, or windy it might be!

Date:

Astronomy

May. 07, 2013 Rise Set
Actual Time 5:56 AM EDT 7:57 PM EDT
Civil Twilight 5:27 AM EDT 8:26 PM EDT
Nautical Twilight 4:52 AM EDT 9:02 PM EDT
Astronomical Twilight 4:14 AM EDT 9:40 PM EDT
Moon 4:27 AM EDT (5/7) 5:56 PM EDT (5/7)
Length of Visible Light 14h 59m
Length of Day
14h 00m
Waning Crescent, 5% of the Moon is Illuminated
May 7
Waning Crescent
May 9
New
May 18
First Quarter
May 25
Full
May 31
Last Quarter

Hourly Weather History & Observations

Time (EDT) Temp. Dew Point Humidity Pressure Visibility Wind Dir Wind Speed Gust Speed Precip Events Conditions
12:53 AM 54.0 °F 54.0 °F 100% 30.07 in 1.0 mi ENE 8.1 mph - N/A   Mist
1:05 AM 53.6 °F 53.6 °F 100% 30.07 in 3.0 mi ENE 6.9 mph - N/A   Overcast
1:11 AM 53.6 °F 53.6 °F 100% 30.06 in 1.8 mi ENE 8.1 mph - N/A   Overcast
1:26 AM 53.6 °F 53.6 °F 100% 30.06 in 0.8 mi ENE 8.1 mph - N/A   Overcast
1:38 AM 53.6 °F 53.6 °F 100% 30.05 in 1.0 mi ENE 9.2 mph - N/A   Overcast
1:53 AM 54.0 °F 54.0 °F 100% 30.05 in 1.0 mi ENE 9.2 mph - N/A   Overcast
2:00 AM 53.6 °F 53.6 °F 100% 30.05 in 0.8 mi ENE 10.4 mph - N/A   Mist
2:13 AM 53.6 °F 53.6 °F 100% 30.04 in 1.0 mi ENE 8.1 mph - N/A   Mist
2:53 AM 54.0 °F 54.0 °F 100% 30.03 in 1.2 mi ENE 9.2 mph - N/A   Overcast
3:07 AM 55.4 °F 55.4 °F 100% 30.02 in 0.5 mi ENE 9.2 mph - N/A Fog Fog
3:27 AM 53.6 °F 53.6 °F 100% 30.02 in 0.2 mi ENE 8.1 mph - N/A Fog Fog
4:07 AM 53.6 °F 53.6 °F 100% 30.02 in 0.5 mi ENE 11.5 mph - N/A Fog Fog
4:53 AM 54.0 °F 54.0 °F 100% 30.02 in 0.5 mi ENE 9.2 mph - N/A Fog Fog
5:31 AM 53.6 °F 53.6 °F 100% 30.01 in 1.0 mi ENE 9.2 mph - N/A   Overcast
5:53 AM 54.0 °F 54.0 °F 100% 30.01 in 1.5 mi ENE 9.2 mph - N/A   Overcast
5:59 AM 55.4 °F 55.4 °F 100% 30.01 in 3.0 mi ENE 12.7 mph 18.4 mph N/A   Overcast
6:24 AM 55.4 °F 55.4 °F 100% 30.01 in 6.0 mi East 11.5 mph 23.0 mph 0.00 in Rain Light Rain
6:40 AM 55.4 °F 55.4 °F 100% 30.02 in 7.0 mi East 10.4 mph - 0.01 in   Overcast
6:53 AM 55.0 °F 55.0 °F 100% 30.02 in 7.0 mi ENE 13.8 mph 24.2 mph 0.01 in   Overcast
7:38 AM 55.4 °F 55.4 °F 100% 30.02 in 8.0 mi North - - N/A   Overcast
7:53 AM 55.9 °F 55.9 °F 100% 30.03 in 8.0 mi ESE 11.5 mph 20.7 mph N/A   Overcast
8:01 AM 55.4 °F 55.4 °F 100% 30.03 in 8.0 mi East 10.4 mph 26.5 mph N/A   Overcast
8:27 AM 57.2 °F 57.2 °F 100% 30.03 in 7.0 mi East 10.4 mph - N/A   Overcast
8:50 AM 55.4 °F 55.4 °F 100% 30.03 in 7.0 mi East 9.2 mph - N/A   Overcast
8:53 AM 55.9 °F 55.9 °F 100% 30.03 in 8.0 mi East 9.2 mph - N/A   Overcast
9:01 AM 57.2 °F 57.2 °F 100% 30.03 in 8.0 mi East 11.5 mph 18.4 mph N/A   Overcast
9:12 AM 57.2 °F 57.2 °F 100% 30.04 in 9.0 mi East 10.4 mph - N/A   Overcast
9:53 AM 55.9 °F 55.9 °F 100% 30.04 in 7.0 mi East 8.1 mph - 0.00 in   Overcast
10:53 AM 57.0 °F 57.0 °F 100% 30.04 in 8.0 mi East 8.1 mph - N/A   Overcast
11:53 AM 59.0 °F 57.9 °F 96% 30.03 in 10.0 mi East 9.2 mph - N/A   Overcast
12:53 PM 57.9 °F 57.0 °F 97% 30.02 in 10.0 mi East 10.4 mph - N/A   Overcast
1:53 PM 57.9 °F 57.0 °F 97% 30.02 in 10.0 mi East 11.5 mph - N/A   Overcast
2:06 PM 57.2 °F 57.2 °F 100% 30.01 in 10.0 mi East 12.7 mph - N/A   Overcast
2:53 PM 55.9 °F 55.9 °F 100% 30.01 in 8.0 mi ENE 11.5 mph - N/A   Overcast
3:53 PM 55.9 °F 55.9 °F 100% 29.98 in 7.0 mi ENE 11.5 mph - 0.03 in   Overcast
4:45 PM 57.2 °F 57.2 °F 100% 29.93 in 4.0 mi ENE 12.7 mph - 0.04 in Rain Light Rain
4:53 PM 57.9 °F 57.9 °F 100% 29.93 in 6.0 mi ENE 15.0 mph 21.9 mph 0.04 in Rain Light Rain
5:45 PM 59.0 °F 59.0 °F 100% 29.96 in 7.0 mi East 9.2 mph - 0.00 in   Mostly Cloudy
5:53 PM 57.9 °F 57.9 °F 100% 29.96 in 6.0 mi East 9.2 mph - 0.00 in   Scattered Clouds
6:04 PM 57.2 °F 57.2 °F 100% 29.96 in 6.0 mi East 6.9 mph - N/A   Mostly Cloudy
6:29 PM 55.4 °F 55.4 °F 100% 29.96 in 6.0 mi ESE 3.5 mph - N/A   Overcast
6:44 PM 57.2 °F 57.2 °F 100% 29.96 in 6.0 mi SE 6.9 mph - N/A   Overcast
6:53 PM 57.0 °F 57.0 °F 100% 29.96 in 6.0 mi ESE 5.8 mph - N/A   Overcast
7:28 PM 55.4 °F 55.4 °F 100% 29.97 in 6.0 mi Calm Calm - N/A   Mostly Cloudy
7:53 PM 55.9 °F 55.9 °F 100% 29.98 in 8.0 mi Variable 4.6 mph - 0.00 in Rain Light Rain
8:53 PM 55.9 °F 55.9 °F 100% 30.01 in 6.0 mi ESE 4.6 mph - 0.03 in Rain Light Rain
9:53 PM 55.9 °F 55.9 °F 100% 30.01 in 10.0 mi SE 5.8 mph - 0.01 in   Overcast
10:53 PM 55.0 °F 55.0 °F 100% 30.00 in 9.0 mi ESE 4.6 mph - N/A   Scattered Clouds
11:53 PM 55.0 °F 55.0 °F 100% 30.01 in 10.0 mi Variable 4.6 mph - N/A   Scattered Clouds